User: anonymous   Login
Location: Unspecified
(0.0000°N, 0.0000°E)
Time: 09:41:54
(UTC+00:00)
Language:

WGS F1 (USA 195) - Orbit

View from above orbital plane
View from above orbital plane
View from above satellite
View from above satellite

Ground track
Ground track

The orbit data is extracted from the following two-line orbital elements,

1 32258U 07046A   20050.10789326  .00000023  00000-0  00000+0 0  9994
2 32258   0.0147 117.5805 0001111 276.1516 159.5870  1.00273202 45150
Epoch (UTC): 19 February 2020 02:35:21
Eccentricity: 0.0001111
inclination: 0.0147°
perigee height: 35781 km
apogee height: 35790 km
right ascension of ascending node: 117.5805°
argument of perigee: 276.1516°
revolutions per day: 1.00273202
mean anomaly at epoch: 159.5870°
orbit number at epoch: 4515

The dashed part of the orbit path shows where the satellite is in the earth's shadow,  

DLR